Hourly Data Report for June 20, 2017

FISHER BRANCH (AUT)
MANITOBA

51°05'00.100" N
97°33'16.200" W
253.00 m
50309J6
71442
WSZ

Download Data

Hourly Data (June 2017)
Hourly Data Report for June 20, 2017
TIME
LST
Temp Definition
°C
Dew Point Definition
°C
Rel Hum Definition
%
Precip. Amount Definition
mm

Wind Dir Definition
10's deg

Wind Spd Definition
km/h
Visibility Definition
km
Stn Press Definition
kPa
Hmdx Definition


Wind Chill Definition


Weather Definition


00:00 9.2 7.9 92 0.0 29 8   98.28     LegendNANA
01:00 8.6 7.7 94 0.0 28 6   98.30     LegendNANA
02:00 8.3 7.6 95 0.0 29 9   98.30     LegendNANA
03:00 8.2 7.6 96 0.0 28 9   98.31     LegendNANA
04:00 6.8 6.2 96 0.0 29 5   98.30     LegendNANA
05:00 7.0 6.6 97 0.0 30 7   98.36     LegendNANA
06:00 9.3 8.6 96 0.0 29 6   98.40     LegendNANA
07:00 12.6 9.9 84 0.0 31 5   98.45     LegendNANA
08:00 15.5 6.6 55 0.0 29 9   98.49     LegendNANA
09:00 17.9 7.4 50 0.0 28 8   98.47     LegendNANA
10:00 18.7 7.9 49 0.0 29 11   98.45     LegendNANA
11:00 18.9 6.5 44 0.0 32 12   98.42     LegendNANA
12:00 20.9 7.5 42 0.0 27 9   98.41     LegendNANA
13:00 19.6 5.9 41 0.0 28 12   98.39     LegendNANA
14:00 21.0 7.7 42 0.0 29 13   98.35     LegendNANA
15:00 21.2 5.6 36 0.0 27 10   98.31     LegendNANA
16:00 22.2 6.7 37 0.0 28 10   98.26     LegendNANA
17:00 22.2 5.5 34 0.0 25 11   98.23     LegendNANA
18:00 21.6 4.9 34 0.0 27 11   98.22     LegendNANA
19:00 21.0 6.4 39 0.0 25 10   98.22     LegendNANA
20:00 19.8 8.1 47 0.0 26 7   98.17     LegendNANA
21:00 14.8 9.0 68 0.0 22 4   98.17     LegendNANA
22:00 14.3 9.4 72 0.0 20 7   98.17     LegendNANA
23:00 11.9 7.7 75 0.0 19 3   98.15     LegendNANA

Notes on Data Quality.

Legend

  • E = Estimated
  • M = Missing
  • NA = Not Available*
  • [empty] = Indicates an unobserved value
Date modified: